Time,TemperatureF,DewpointF,PressureIn,WindDirection,WindDirectionDegrees,WindSpeedMPH,WindSpeedGustMPH,Humidity,HourlyPrecipIn,Conditions,Clouds,dailyrainin,SoftwareType,DateUTC
2013-12-19 00:02:00,51.8,47.0,30.02,ESE,112,3.5,8.0,82,0.00,,,0.00,Rainwise IP-100,2013-12-19 06:02:00,
2013-12-19 00:07:00,51.5,47.0,30.02,ESE,112,3.0,7.0,82,0.00,,,0.00,Rainwise IP-100,2013-12-19 06:07:00,
2013-12-19 00:12:00,51.4,46.0,30.01,SSE,157,4.4,6.0,82,0.00,,,0.00,Rainwise IP-100,2013-12-19 06:12:00,
2013-12-19 00:17:00,51.4,47.0,30.01,ESE,112,3.0,7.0,83,0.00,,,0.00,Rainwise IP-100,2013-12-19 06:17:00,
2013-12-19 00:22:00,51.4,47.0,30.01,SSE,157,7.7,7.7,83,0.00,,,0.00,Rainwise IP-100,2013-12-19 06:22:00,
2013-12-19 00:27:00,51.6,47.0,30.00,SSE,157,5.1,10.0,84,0.00,,,0.00,Rainwise IP-100,2013-12-19 06:27:00,
2013-12-19 00:32:00,51.8,47.0,30.00,ESE,112,4.7,7.0,84,0.00,,,0.00,Rainwise IP-100,2013-12-19 06:32:00,
2013-12-19 00:37:00,51.8,47.0,30.00,SE,135,3.7,8.0,84,0.00,,,0.00,Rainwise IP-100,2013-12-19 06:37:00,
2013-12-19 00:42:00,51.7,47.0,30.00,SE,135,4.4,6.0,84,0.00,,,0.00,Rainwise IP-100,2013-12-19 06:42:00,
2013-12-19 00:47:00,51.6,47.0,30.00,ESE,112,3.3,8.0,84,0.00,,,0.00,Rainwise IP-100,2013-12-19 06:47:00,
2013-12-19 00:52:00,51.4,47.0,30.00,SE,135,3.7,6.0,84,0.00,,,0.00,Rainwise IP-100,2013-12-19 06:52:00,
2013-12-19 00:57:00,51.2,47.0,30.00,SSE,157,6.3,6.3,85,0.00,,,0.00,Rainwise IP-100,2013-12-19 06:57:00,
2013-12-19 01:02:00,50.9,47.0,30.00,SSE,157,3.3,6.0,85,0.00,,,0.00,Rainwise IP-100,2013-12-19 07:02:00,
2013-12-19 01:07:00,50.7,46.0,30.00,SE,135,2.3,6.0,85,0.00,,,0.00,Rainwise IP-100,2013-12-19 07:07:00,
2013-12-19 01:12:00,50.5,47.0,30.00,SSE,157,4.0,6.0,86,0.00,,,0.00,Rainwise IP-100,2013-12-19 07:12:00,
2013-12-19 01:17:00,50.3,46.0,29.99,SE,135,3.5,5.0,87,0.00,,,0.00,Rainwise IP-100,2013-12-19 07:17:00,
2013-12-19 01:22:00,50.3,46.0,29.99,SSE,157,1.6,6.0,87,0.00,,,0.00,Rainwise IP-100,2013-12-19 07:22:00,
2013-12-19 01:27:00,50.2,47.0,29.99,SSE,157,3.0,4.0,88,0.00,,,0.00,Rainwise IP-100,2013-12-19 07:27:00,
2013-12-19 01:32:00,50.3,47.0,29.99,SE,135,0.0,4.0,88,0.00,,,0.00,Rainwise IP-100,2013-12-19 07:32:00,
2013-12-19 01:37:00,50.4,47.0,29.98,SE,135,0.0,4.0,89,0.00,,,0.00,Rainwise IP-100,2013-12-19 07:37:00,
2013-12-19 01:42:00,50.4,47.0,29.98,ESE,112,2.1,4.0,89,0.00,,,0.00,Rainwise IP-100,2013-12-19 07:42:00,
2013-12-19 01:47:00,50.6,47.0,29.98,SSE,157,3.7,4.0,90,0.00,,,0.00,Rainwise IP-100,2013-12-19 07:47:00,
2013-12-19 01:52:00,50.9,48.0,29.98,ESE,112,4.4,5.0,90,0.00,,,0.00,Rainwise IP-100,2013-12-19 07:52:00,
2013-12-19 01:57:00,51.4,49.0,29.98,SE,135,5.1,6.0,91,0.00,,,0.00,Rainwise IP-100,2013-12-19 07:57:00,
2013-12-19 02:02:00,51.7,49.0,29.98,SSE,157,6.1,7.0,91,0.00,,,0.00,Rainwise IP-100,2013-12-19 08:02:00,
2013-12-19 02:07:00,51.8,49.0,29.98,SSE,157,6.8,7.0,91,0.00,,,0.00,Rainwise IP-100,2013-12-19 08:07:00,
2013-12-19 02:12:00,52.0,49.0,29.98,SSE,157,5.4,8.0,91,0.00,,,0.00,Rainwise IP-100,2013-12-19 08:12:00,
2013-12-19 02:17:00,52.2,49.0,29.98,SE,135,4.4,9.0,91,0.00,,,0.00,Rainwise IP-100,2013-12-19 08:17:00,
2013-12-19 02:22:00,52.4,49.0,29.98,ESE,112,5.1,8.0,91,0.00,,,0.00,Rainwise IP-100,2013-12-19 08:22:00,
2013-12-19 02:27:00,52.6,50.0,29.98,SSE,157,3.3,7.0,91,0.00,,,0.00,Rainwise IP-100,2013-12-19 08:27:00,
2013-12-19 02:32:00,52.7,50.0,29.97,South,180,4.4,6.0,91,0.00,,,0.00,Rainwise IP-100,2013-12-19 08:32:00,
2013-12-19 02:37:00,52.7,50.0,29.97,SSE,157,5.6,6.0,91,0.00,,,0.00,Rainwise IP-100,2013-12-19 08:37:00,
2013-12-19 02:42:00,52.9,50.0,29.97,SE,135,3.7,7.0,91,0.00,,,0.00,Rainwise IP-100,2013-12-19 08:42:00,
2013-12-19 02:47:00,53.1,50.0,29.97,SSE,157,3.0,8.0,91,0.00,,,0.00,Rainwise IP-100,2013-12-19 08:47:00,
2013-12-19 02:52:00,53.0,50.0,29.97,SE,135,5.1,7.0,91,0.00,,,0.00,Rainwise IP-100,2013-12-19 08:52:00,
2013-12-19 02:57:00,53.1,50.0,29.97,SSE,157,2.8,7.0,91,0.00,,,0.00,Rainwise IP-100,2013-12-19 08:57:00,
2013-12-19 03:02:00,53.1,50.0,29.96,ESE,112,4.0,6.0,92,0.00,,,0.00,Rainwise IP-100,2013-12-19 09:02:00,
2013-12-19 03:07:00,53.1,50.0,29.96,SE,135,3.7,8.0,92,0.00,,,0.00,Rainwise IP-100,2013-12-19 09:07:00,
2013-12-19 03:12:00,53.2,50.0,29.96,SE,135,4.7,9.0,92,0.00,,,0.00,Rainwise IP-100,2013-12-19 09:12:00,
2013-12-19 03:17:00,53.2,50.0,29.97,SSE,157,3.5,8.0,92,0.00,,,0.00,Rainwise IP-100,2013-12-19 09:17:00,
2013-12-19 03:22:00,53.3,50.0,29.97,SE,135,5.8,6.0,92,0.00,,,0.00,Rainwise IP-100,2013-12-19 09:22:00,
2013-12-19 03:27:00,53.5,51.0,29.96,South,180,4.2,7.0,92,0.00,,,0.00,Rainwise IP-100,2013-12-19 09:27:00,
2013-12-19 03:32:00,53.7,51.0,29.96,SE,135,3.7,7.0,92,0.00,,,0.00,Rainwise IP-100,2013-12-19 09:32:00,
2013-12-19 03:37:00,53.9,52.0,29.96,SSE,157,4.2,6.0,92,0.00,,,0.00,Rainwise IP-100,2013-12-19 09:37:00,
2013-12-19 03:42:00,54.0,52.0,29.96,SE,135,3.7,6.0,92,0.00,,,0.00,Rainwise IP-100,2013-12-19 09:42:00,
2013-12-19 03:47:00,54.1,52.0,29.95,SE,135,3.5,6.0,92,0.00,,,0.00,Rainwise IP-100,2013-12-19 09:47:00,
2013-12-19 03:52:00,54.2,52.0,29.96,SE,135,2.8,5.0,92,0.00,,,0.00,Rainwise IP-100,2013-12-19 09:52:00,
2013-12-19 03:57:00,54.2,52.0,29.96,SE,135,4.0,7.0,92,0.00,,,0.00,Rainwise IP-100,2013-12-19 09:57:00,
2013-12-19 04:02:00,54.3,52.0,29.95,SSE,157,2.8,5.0,92,0.00,,,0.00,Rainwise IP-100,2013-12-19 10:02:00,
2013-12-19 04:07:00,54.3,52.0,29.95,SSE,157,3.0,6.0,92,0.00,,,0.00,Rainwise IP-100,2013-12-19 10:07:00,
2013-12-19 04:12:00,54.3,52.0,29.94,SSE,157,2.3,6.0,92,0.00,,,0.00,Rainwise IP-100,2013-12-19 10:12:00,
2013-12-19 04:17:00,54.3,52.0,29.95,South,180,3.7,5.0,92,0.00,,,0.00,Rainwise IP-100,2013-12-19 10:17:00,
2013-12-19 04:22:00,54.2,52.0,29.95,SSE,157,3.0,5.0,92,0.00,,,0.00,Rainwise IP-100,2013-12-19 10:22:00,
2013-12-19 04:27:00,54.2,52.0,29.95,SSE,157,4.4,6.0,92,0.00,,,0.00,Rainwise IP-100,2013-12-19 10:27:00,
2013-12-19 04:32:00,54.3,52.0,29.95,SSE,157,4.9,5.0,92,0.00,,,0.00,Rainwise IP-100,2013-12-19 10:32:00,
2013-12-19 04:37:00,54.4,53.0,29.94,SSE,157,5.1,10.0,92,0.00,,,0.00,Rainwise IP-100,2013-12-19 10:37:00,
2013-12-19 04:42:00,54.7,53.0,29.94,SSW,202,6.5,10.0,92,0.00,,,0.00,Rainwise IP-100,2013-12-19 10:42:00,
2013-12-19 04:47:00,55.1,53.0,29.94,SSE,157,8.4,9.0,91,0.00,,,0.00,Rainwise IP-100,2013-12-19 10:47:00,
2013-12-19 04:52:00,55.5,53.0,29.93,South,180,6.1,11.0,91,0.00,,,0.00,Rainwise IP-100,2013-12-19 10:52:00,
2013-12-19 04:57:00,55.8,53.0,29.93,SSE,157,7.0,10.0,90,0.00,,,0.00,Rainwise IP-100,2013-12-19 10:57:00,
2013-12-19 05:02:00,56.0,53.0,29.93,SSE,157,8.2,10.0,90,0.00,,,0.00,Rainwise IP-100,2013-12-19 11:02:00,
2013-12-19 05:07:00,56.2,53.0,29.93,South,180,7.2,13.0,90,0.00,,,0.00,Rainwise IP-100,2013-12-19 11:07:00,
2013-12-19 05:12:00,56.3,53.0,29.93,South,180,8.9,10.0,89,0.00,,,0.00,Rainwise IP-100,2013-12-19 11:12:00,
2013-12-19 05:17:00,56.3,53.0,29.92,SSW,202,4.7,10.0,89,0.00,,,0.00,Rainwise IP-100,2013-12-19 11:17:00,
2013-12-19 05:22:00,56.5,53.0,29.92,SSE,157,3.7,9.0,89,0.00,,,0.00,Rainwise IP-100,2013-12-19 11:22:00,
2013-12-19 05:27:00,56.6,53.0,29.92,South,180,8.6,11.0,89,0.00,,,0.00,Rainwise IP-100,2013-12-19 11:27:00,
2013-12-19 05:32:00,56.6,53.0,29.92,SE,135,5.1,9.0,89,0.00,,,0.00,Rainwise IP-100,2013-12-19 11:32:00,
2013-12-19 05:37:00,56.7,53.0,29.92,SSE,157,4.7,9.0,88,0.00,,,0.00,Rainwise IP-100,2013-12-19 11:37:00,
2013-12-19 05:42:00,56.7,53.0,29.92,SSW,202,4.4,10.0,88,0.00,,,0.00,Rainwise IP-100,2013-12-19 11:42:00,
2013-12-19 05:47:00,56.8,53.0,29.91,SSE,157,4.4,11.0,88,0.00,,,0.00,Rainwise IP-100,2013-12-19 11:47:00,
2013-12-19 05:52:00,56.9,53.0,29.92,SSW,202,1.9,9.0,88,0.00,,,0.00,Rainwise IP-100,2013-12-19 11:52:00,
2013-12-19 05:57:00,56.9,53.0,29.92,SSW,202,4.9,9.0,88,0.00,,,0.00,Rainwise IP-100,2013-12-19 11:57:00,
2013-12-19 06:02:00,57.0,53.0,29.91,SSE,157,5.6,8.0,88,0.00,,,0.00,Rainwise IP-100,2013-12-19 12:02:00,
2013-12-19 06:07:00,57.0,53.0,29.92,South,180,7.5,9.0,88,0.00,,,0.00,Rainwise IP-100,2013-12-19 12:07:00,
2013-12-19 06:12:00,57.1,53.0,29.91,SSE,157,3.0,11.0,88,0.00,,,0.00,Rainwise IP-100,2013-12-19 12:12:00,
2013-12-19 06:17:00,57.3,53.0,29.91,South,180,4.4,11.0,88,0.00,,,0.00,Rainwise IP-100,2013-12-19 12:17:00,
2013-12-19 06:22:00,57.4,54.0,29.91,South,180,8.9,12.0,88,0.00,,,0.00,Rainwise IP-100,2013-12-19 12:22:00,
2013-12-19 06:27:00,57.5,54.0,29.92,SSW,202,2.8,12.0,87,0.00,,,0.00,Rainwise IP-100,2013-12-19 12:27:00,
2013-12-19 06:32:00,57.7,54.0,29.92,SSW,202,5.1,9.0,87,0.00,,,0.00,Rainwise IP-100,2013-12-19 12:32:00,
2013-12-19 06:37:00,57.8,54.0,29.92,SSE,157,6.5,12.0,87,0.00,,,0.00,Rainwise IP-100,2013-12-19 12:37:00,
2013-12-19 06:42:00,58.0,54.0,29.92,SSE,157,10.0,11.0,87,0.00,,,0.00,Rainwise IP-100,2013-12-19 12:42:00,
2013-12-19 06:47:00,58.0,54.0,29.92,SSW,202,5.6,11.0,87,0.00,,,0.00,Rainwise IP-100,2013-12-19 12:47:00,
2013-12-19 06:52:00,58.1,54.0,29.92,SSE,157,3.3,15.0,87,0.00,,,0.00,Rainwise IP-100,2013-12-19 12:52:00,
2013-12-19 06:57:00,58.2,54.0,29.92,South,180,8.2,13.0,86,0.00,,,0.00,Rainwise IP-100,2013-12-19 12:57:00,
2013-12-19 07:02:00,58.3,54.0,29.92,South,180,5.8,12.0,86,0.00,,,0.00,Rainwise IP-100,2013-12-19 13:02:00,
2013-12-19 07:07:00,58.3,54.0,29.92,SSW,202,5.6,11.0,86,0.00,,,0.00,Rainwise IP-100,2013-12-19 13:07:00,
2013-12-19 07:12:00,58.3,54.0,29.92,SSW,202,7.5,10.0,86,0.00,,,0.00,Rainwise IP-100,2013-12-19 13:12:00,
2013-12-19 07:17:00,58.4,54.0,29.92,SSE,157,7.0,14.0,86,0.00,,,0.00,Rainwise IP-100,2013-12-19 13:17:00,
2013-12-19 07:22:00,58.6,54.0,29.93,South,180,8.9,18.0,85,0.00,,,0.00,Rainwise IP-100,2013-12-19 13:22:00,
2013-12-19 07:27:00,58.8,54.0,29.92,SSE,157,8.2,12.0,85,0.00,,,0.00,Rainwise IP-100,2013-12-19 13:27:00,
2013-12-19 07:32:00,58.8,54.0,29.92,SSE,157,9.3,14.0,85,0.00,,,0.00,Rainwise IP-100,2013-12-19 13:32:00,
2013-12-19 07:37:00,58.9,54.0,29.92,South,180,8.6,15.0,85,0.00,,,0.00,Rainwise IP-100,2013-12-19 13:37:00,
2013-12-19 07:42:00,59.0,54.0,29.92,SSW,202,9.3,14.0,85,0.00,,,0.00,Rainwise IP-100,2013-12-19 13:42:00,
2013-12-19 07:47:00,59.0,54.0,29.93,SSW,202,7.7,17.0,84,0.00,,,0.00,Rainwise IP-100,2013-12-19 13:47:00,
2013-12-19 07:52:00,59.0,54.0,29.93,SSE,157,5.8,15.0,84,0.00,,,0.00,Rainwise IP-100,2013-12-19 13:52:00,
2013-12-19 07:57:00,59.0,54.0,29.93,SSW,202,8.6,12.0,84,0.00,,,0.00,Rainwise IP-100,2013-12-19 13:57:00,
2013-12-19 08:02:00,59.1,54.0,29.92,South,180,7.0,18.0,84,0.00,,,0.00,Rainwise IP-100,2013-12-19 14:02:00,
2013-12-19 08:07:00,59.2,54.0,29.93,SSE,157,10.0,17.0,83,0.00,,,0.00,Rainwise IP-100,2013-12-19 14:07:00,
2013-12-19 08:12:00,59.3,54.0,29.93,SSW,202,4.9,13.0,83,0.00,,,0.00,Rainwise IP-100,2013-12-19 14:12:00,
2013-12-19 08:17:00,59.3,54.0,29.94,SSE,157,5.8,11.0,83,0.00,,,0.00,Rainwise IP-100,2013-12-19 14:17:00,
2013-12-19 08:22:00,59.4,54.0,29.93,SSE,157,5.1,13.0,83,0.00,,,0.00,Rainwise IP-100,2013-12-19 14:22:00,
2013-12-19 08:27:00,59.4,54.0,29.93,South,180,6.5,11.0,83,0.00,,,0.00,Rainwise IP-100,2013-12-19 14:27:00,
2013-12-19 08:32:00,59.4,54.0,29.92,SSW,202,12.1,12.1,83,0.00,,,0.00,Rainwise IP-100,2013-12-19 14:32:00,
2013-12-19 08:37:00,59.6,54.0,29.93,SSE,157,7.5,12.0,83,0.00,,,0.00,Rainwise IP-100,2013-12-19 14:37:00,
2013-12-19 08:42:00,59.7,54.0,29.93,SSW,202,5.1,13.0,82,0.00,,,0.00,Rainwise IP-100,2013-12-19 14:42:00,
2013-12-19 08:47:00,59.7,54.0,29.93,SSE,157,5.8,14.0,82,0.00,,,0.00,Rainwise IP-100,2013-12-19 14:47:00,
2013-12-19 08:52:00,59.9,54.0,29.94,SSW,202,4.2,11.0,82,0.00,,,0.00,Rainwise IP-100,2013-12-19 14:52:00,
2013-12-19 08:57:00,60.1,54.0,29.94,SSE,157,10.3,13.0,82,0.00,,,0.00,Rainwise IP-100,2013-12-19 14:57:00,
2013-12-19 09:02:00,60.3,54.0,29.93,SSW,202,7.7,13.0,81,0.00,,,0.00,Rainwise IP-100,2013-12-19 15:02:00,
2013-12-19 09:07:00,60.4,54.0,29.94,SSW,202,7.5,16.0,81,0.00,,,0.00,Rainwise IP-100,2013-12-19 15:07:00,
2013-12-19 09:12:00,60.5,54.0,29.94,SSW,202,7.7,13.0,81,0.00,,,0.00,Rainwise IP-100,2013-12-19 15:12:00,
2013-12-19 09:17:00,60.7,54.0,29.94,South,180,5.8,10.0,80,0.00,,,0.00,Rainwise IP-100,2013-12-19 15:17:00,
2013-12-19 09:22:00,60.8,54.0,29.94,SSE,157,6.8,19.0,80,0.00,,,0.00,Rainwise IP-100,2013-12-19 15:22:00,
2013-12-19 09:27:00,60.9,54.0,29.94,SSE,157,12.1,14.0,80,0.00,,,0.00,Rainwise IP-100,2013-12-19 15:27:00,
2013-12-19 09:32:00,61.0,54.0,29.93,SSW,202,6.8,14.0,79,0.00,,,0.00,Rainwise IP-100,2013-12-19 15:32:00,
2013-12-19 09:37:00,61.2,54.0,29.94,SSW,202,7.0,16.0,79,0.00,,,0.00,Rainwise IP-100,2013-12-19 15:37:00,
2013-12-19 09:42:00,61.3,54.0,29.94,SSE,157,9.6,18.0,78,0.00,,,0.00,Rainwise IP-100,2013-12-19 15:42:00,
2013-12-19 09:47:00,61.5,54.0,29.94,SSE,157,11.2,20.0,78,0.00,,,0.00,Rainwise IP-100,2013-12-19 15:47:00,
2013-12-19 09:52:00,61.7,54.0,29.95,South,180,8.2,18.0,77,0.00,,,0.00,Rainwise IP-100,2013-12-19 15:52:00,
2013-12-19 09:57:00,61.8,54.0,29.94,SSE,157,5.6,22.0,77,0.00,,,0.00,Rainwise IP-100,2013-12-19 15:57:00,
2013-12-19 10:02:00,62.0,54.0,29.94,SSE,157,7.7,17.0,77,0.00,,,0.00,Rainwise IP-100,2013-12-19 16:02:00,
2013-12-19 10:07:00,62.2,54.0,29.94,South,180,12.4,18.0,77,0.00,,,0.00,Rainwise IP-100,2013-12-19 16:07:00,
2013-12-19 10:12:00,62.5,54.0,29.94,SSE,157,16.1,16.1,76,0.00,,,0.00,Rainwise IP-100,2013-12-19 16:12:00,
2013-12-19 10:17:00,62.8,54.0,29.94,SSE,157,9.8,20.0,75,0.00,,,0.00,Rainwise IP-100,2013-12-19 16:17:00,
2013-12-19 10:22:00,63.0,54.0,29.95,SW,225,9.6,18.0,74,0.00,,,0.00,Rainwise IP-100,2013-12-19 16:22:00,
2013-12-19 10:27:00,63.2,54.0,29.93,SSW,202,5.8,18.0,74,0.00,,,0.00,Rainwise IP-100,2013-12-19 16:27:00,
2013-12-19 10:32:00,63.2,54.0,29.93,South,180,7.5,19.0,74,0.00,,,0.00,Rainwise IP-100,2013-12-19 16:32:00,
2013-12-19 10:37:00,63.4,54.0,29.94,SSW,202,10.3,16.0,73,0.00,,,0.00,Rainwise IP-100,2013-12-19 16:37:00,
2013-12-19 10:42:00,63.6,54.0,29.94,SE,135,8.4,17.0,73,0.00,,,0.00,Rainwise IP-100,2013-12-19 16:42:00,
2013-12-19 10:47:00,63.9,55.0,29.93,SSW,202,7.2,14.0,73,0.00,,,0.00,Rainwise IP-100,2013-12-19 16:47:00,
2013-12-19 10:52:00,64.2,54.0,29.93,South,180,11.7,16.0,72,0.00,,,0.00,Rainwise IP-100,2013-12-19 16:52:00,
2013-12-19 10:57:00,64.3,54.0,29.93,SSW,202,7.9,17.0,72,0.00,,,0.00,Rainwise IP-100,2013-12-19 16:57:00,
2013-12-19 11:02:00,64.5,54.0,29.93,South,180,7.7,16.0,71,0.00,,,0.00,Rainwise IP-100,2013-12-19 17:02:00,
2013-12-19 11:07:00,65.0,55.0,29.92,SSE,157,8.2,17.0,71,0.00,,,0.00,Rainwise IP-100,2013-12-19 17:07:00,
2013-12-19 11:12:00,65.7,55.0,29.92,SSE,157,18.0,18.0,70,0.00,,,0.00,Rainwise IP-100,2013-12-19 17:12:00,
2013-12-19 11:17:00,66.0,55.0,29.93,SSW,202,7.7,20.0,69,0.00,,,0.00,Rainwise IP-100,2013-12-19 17:17:00,
2013-12-19 11:22:00,66.3,55.0,29.92,SE,135,8.6,17.0,68,0.00,,,0.00,Rainwise IP-100,2013-12-19 17:22:00,
2013-12-19 11:27:00,66.6,55.0,29.92,South,180,8.2,17.0,67,0.00,,,0.00,Rainwise IP-100,2013-12-19 17:27:00,
2013-12-19 11:32:00,66.7,55.0,29.92,South,180,9.6,16.0,67,0.00,,,0.00,Rainwise IP-100,2013-12-19 17:32:00,
2013-12-19 11:37:00,66.7,55.0,29.92,SSW,202,11.7,18.0,67,0.00,,,0.00,Rainwise IP-100,2013-12-19 17:37:00,
2013-12-19 11:42:00,67.0,56.0,29.91,SSW,202,6.3,15.0,67,0.00,,,0.00,Rainwise IP-100,2013-12-19 17:42:00,
2013-12-19 11:47:00,67.3,55.0,29.91,SSE,157,11.2,12.0,66,0.00,,,0.00,Rainwise IP-100,2013-12-19 17:47:00,
2013-12-19 11:52:00,67.0,55.0,29.91,South,180,8.4,18.0,66,0.00,,,0.00,Rainwise IP-100,2013-12-19 17:52:00,
2013-12-19 11:57:00,67.3,55.0,29.90,SSW,202,5.8,15.0,66,0.00,,,0.00,Rainwise IP-100,2013-12-19 17:57:00,
2013-12-19 12:02:00,67.9,56.0,29.91,SSW,202,10.0,16.0,65,0.00,,,0.00,Rainwise IP-100,2013-12-19 18:02:00,
2013-12-19 12:07:00,67.9,55.0,29.90,South,180,13.1,16.0,64,0.00,,,0.00,Rainwise IP-100,2013-12-19 18:07:00,
2013-12-19 12:12:00,68.0,55.0,29.90,SSW,202,7.9,19.0,64,0.00,,,0.00,Rainwise IP-100,2013-12-19 18:12:00,
2013-12-19 12:17:00,68.3,54.0,29.89,SSW,202,11.2,16.0,63,0.00,,,0.00,Rainwise IP-100,2013-12-19 18:17:00,
2013-12-19 12:22:00,68.6,55.0,29.89,SSW,202,6.1,17.0,63,0.00,,,0.00,Rainwise IP-100,2013-12-19 18:22:00,
2013-12-19 12:27:00,68.9,55.0,29.88,SSW,202,7.0,15.0,62,0.00,,,0.00,Rainwise IP-100,2013-12-19 18:27:00,
2013-12-19 12:32:00,69.0,55.0,29.88,SSE,157,8.6,15.0,62,0.00,,,0.00,Rainwise IP-100,2013-12-19 18:32:00,
2013-12-19 12:37:00,69.0,55.0,29.87,SSW,202,6.1,20.0,62,0.00,,,0.00,Rainwise IP-100,2013-12-19 18:37:00,
2013-12-19 12:42:00,69.0,55.0,29.86,SSW,202,10.0,21.0,62,0.00,,,0.00,Rainwise IP-100,2013-12-19 18:42:00,
2013-12-19 12:47:00,68.9,54.0,29.87,South,180,11.9,19.0,61,0.00,,,0.00,Rainwise IP-100,2013-12-19 18:47:00,
2013-12-19 12:52:00,68.6,54.0,29.86,SSW,202,8.9,21.0,62,0.00,,,0.00,Rainwise IP-100,2013-12-19 18:52:00,
2013-12-19 12:57:00,68.7,54.0,29.86,SSE,157,11.0,20.0,62,0.00,,,0.00,Rainwise IP-100,2013-12-19 18:57:00,
2013-12-19 13:02:00,68.6,54.0,29.86,SSE,157,6.8,19.0,62,0.00,,,0.00,Rainwise IP-100,2013-12-19 19:02:00,
2013-12-19 13:07:00,68.4,54.0,29.85,SE,135,7.0,19.0,62,0.00,,,0.00,Rainwise IP-100,2013-12-19 19:07:00,
2013-12-19 13:12:00,68.5,54.0,29.85,South,180,11.9,19.0,62,0.00,,,0.00,Rainwise IP-100,2013-12-19 19:12:00,
2013-12-19 13:17:00,68.3,54.0,29.86,SSE,157,14.9,18.0,62,0.00,,,0.00,Rainwise IP-100,2013-12-19 19:17:00,
2013-12-19 13:22:00,68.1,54.0,29.85,SSW,202,6.5,14.0,63,0.00,,,0.00,Rainwise IP-100,2013-12-19 19:22:00,
2013-12-19 13:27:00,68.4,54.0,29.85,South,180,11.0,16.0,62,0.00,,,0.00,Rainwise IP-100,2013-12-19 19:27:00,
2013-12-19 13:32:00,68.4,54.0,29.84,SSE,157,12.8,17.0,62,0.00,,,0.00,Rainwise IP-100,2013-12-19 19:32:00,
2013-12-19 13:37:00,68.3,54.0,29.84,South,180,6.5,17.0,62,0.00,,,0.00,Rainwise IP-100,2013-12-19 19:37:00,
2013-12-19 13:42:00,68.6,54.0,29.85,SSW,202,11.9,19.0,61,0.00,,,0.00,Rainwise IP-100,2013-12-19 19:42:00,
2013-12-19 13:47:00,68.7,54.0,29.84,SSW,202,12.1,16.0,61,0.00,,,0.00,Rainwise IP-100,2013-12-19 19:47:00,
2013-12-19 13:52:00,68.3,54.0,29.84,SSE,157,6.1,13.0,61,0.00,,,0.00,Rainwise IP-100,2013-12-19 19:52:00,
2013-12-19 13:57:00,68.1,54.0,29.84,South,180,8.4,15.0,62,0.00,,,0.00,Rainwise IP-100,2013-12-19 19:57:00,
2013-12-19 14:02:00,68.1,54.0,29.83,ESE,112,2.8,16.0,62,0.00,,,0.00,Rainwise IP-100,2013-12-19 20:02:00,
2013-12-19 14:07:00,68.5,54.0,29.83,SSE,157,5.4,14.0,61,0.00,,,0.00,Rainwise IP-100,2013-12-19 20:07:00,
2013-12-19 14:12:00,68.7,54.0,29.83,SSE,157,13.3,15.0,61,0.00,,,0.00,Rainwise IP-100,2013-12-19 20:12:00,
2013-12-19 14:17:00,68.5,54.0,29.82,SSE,157,14.0,18.0,61,0.00,,,0.00,Rainwise IP-100,2013-12-19 20:17:00,
2013-12-19 14:22:00,68.2,53.0,29.82,SSW,202,13.8,20.0,60,0.00,,,0.00,Rainwise IP-100,2013-12-19 20:22:00,
2013-12-19 14:27:00,68.1,54.0,29.83,SE,135,9.8,18.0,61,0.00,,,0.00,Rainwise IP-100,2013-12-19 20:27:00,
2013-12-19 14:32:00,67.8,53.0,29.82,ESE,112,11.0,15.0,61,0.00,,,0.00,Rainwise IP-100,2013-12-19 20:32:00,
2013-12-19 14:37:00,67.6,53.0,29.83,SSW,202,6.3,18.0,61,0.00,,,0.00,Rainwise IP-100,2013-12-19 20:37:00,
2013-12-19 14:42:00,67.4,53.0,29.83,SSW,202,8.4,17.0,61,0.00,,,0.00,Rainwise IP-100,2013-12-19 20:42:00,
2013-12-19 14:47:00,67.3,54.0,29.83,SSW,202,7.5,20.0,62,0.00,,,0.00,Rainwise IP-100,2013-12-19 20:47:00,
2013-12-19 14:52:00,67.3,54.0,29.83,SSW,202,4.9,14.0,63,0.00,,,0.00,Rainwise IP-100,2013-12-19 20:52:00,
2013-12-19 14:57:00,67.5,54.0,29.82,SSE,157,7.0,17.0,63,0.00,,,0.00,Rainwise IP-100,2013-12-19 20:57:00,
2013-12-19 15:02:00,67.5,54.0,29.82,SSW,202,7.0,13.0,63,0.00,,,0.00,Rainwise IP-100,2013-12-19 21:02:00,
2013-12-19 15:07:00,67.4,54.0,29.82,South,180,5.6,18.0,63,0.00,,,0.00,Rainwise IP-100,2013-12-19 21:07:00,
2013-12-19 15:12:00,67.2,54.0,29.82,SSW,202,7.0,14.0,64,0.00,,,0.00,Rainwise IP-100,2013-12-19 21:12:00,
2013-12-19 15:17:00,67.3,54.0,29.82,SSW,202,3.3,11.0,64,0.00,,,0.00,Rainwise IP-100,2013-12-19 21:17:00,
2013-12-19 15:22:00,67.3,54.0,29.82,SSW,202,8.9,14.0,64,0.00,,,0.00,Rainwise IP-100,2013-12-19 21:22:00,
2013-12-19 15:27:00,67.3,54.0,29.82,SSE,157,4.4,14.0,64,0.00,,,0.00,Rainwise IP-100,2013-12-19 21:27:00,
2013-12-19 15:32:00,67.5,55.0,29.82,SSE,157,5.6,16.0,64,0.00,,,0.00,Rainwise IP-100,2013-12-19 21:32:00,
2013-12-19 15:37:00,67.8,55.0,29.81,SSW,202,9.1,14.0,64,0.00,,,0.00,Rainwise IP-100,2013-12-19 21:37:00,
2013-12-19 15:42:00,67.5,55.0,29.82,SSE,157,8.9,16.0,64,0.00,,,0.00,Rainwise IP-100,2013-12-19 21:42:00,
2013-12-19 15:47:00,67.3,54.0,29.82,SSW,202,7.5,11.0,64,0.00,,,0.00,Rainwise IP-100,2013-12-19 21:47:00,
2013-12-19 15:52:00,67.3,55.0,29.82,SE,135,7.7,10.0,65,0.00,,,0.00,Rainwise IP-100,2013-12-19 21:52:00,
2013-12-19 15:57:00,67.2,55.0,29.82,South,180,8.6,11.0,65,0.00,,,0.00,Rainwise IP-100,2013-12-19 21:57:00,
2013-12-19 16:02:00,67.1,55.0,29.82,SSE,157,10.5,13.0,65,0.00,,,0.00,Rainwise IP-100,2013-12-19 22:02:00,
2013-12-19 16:07:00,67.0,55.0,29.82,South,180,11.4,14.0,65,0.00,,,0.00,Rainwise IP-100,2013-12-19 22:07:00,
2013-12-19 16:12:00,66.9,55.0,29.82,SSE,157,11.4,14.0,65,0.00,,,0.00,Rainwise IP-100,2013-12-19 22:12:00,
2013-12-19 16:17:00,66.8,54.0,29.81,SSE,157,8.4,15.0,65,0.00,,,0.00,Rainwise IP-100,2013-12-19 22:17:00,
2013-12-19 16:22:00,66.6,55.0,29.81,SSW,202,6.8,14.0,66,0.00,,,0.00,Rainwise IP-100,2013-12-19 22:22:00,
2013-12-19 16:27:00,66.3,54.0,29.82,SSE,157,8.2,12.0,66,0.00,,,0.00,Rainwise IP-100,2013-12-19 22:27:00,
2013-12-19 16:32:00,66.2,54.0,29.82,SSE,157,9.8,13.0,66,0.00,,,0.00,Rainwise IP-100,2013-12-19 22:32:00,
2013-12-19 16:37:00,66.2,55.0,29.82,SSE,157,7.5,14.0,67,0.00,,,0.00,Rainwise IP-100,2013-12-19 22:37:00,
2013-12-19 16:42:00,66.1,54.0,29.82,SSE,157,7.7,11.0,66,0.00,,,0.00,Rainwise IP-100,2013-12-19 22:42:00,
2013-12-19 16:47:00,65.9,54.0,29.82,SSE,157,5.6,14.0,66,0.00,,,0.00,Rainwise IP-100,2013-12-19 22:47:00,
2013-12-19 16:52:00,65.7,54.0,29.82,SSE,157,6.5,14.0,67,0.00,,,0.00,Rainwise IP-100,2013-12-19 22:52:00,
2013-12-19 16:57:00,65.4,54.0,29.82,South,180,4.0,16.0,67,0.00,,,0.00,Rainwise IP-100,2013-12-19 22:57:00,
2013-12-19 17:02:00,65.3,54.0,29.82,SSE,157,6.3,11.0,68,0.00,,,0.00,Rainwise IP-100,2013-12-19 23:02:00,
2013-12-19 17:07:00,65.1,54.0,29.83,SW,225,5.1,10.0,68,0.00,,,0.00,Rainwise IP-100,2013-12-19 23:07:00,
2013-12-19 17:12:00,64.8,54.0,29.82,SSW,202,2.8,11.0,69,0.00,,,0.00,Rainwise IP-100,2013-12-19 23:12:00,
2013-12-19 17:17:00,64.6,54.0,29.83,SSE,157,7.2,11.0,69,0.00,,,0.00,Rainwise IP-100,2013-12-19 23:17:00,
2013-12-19 17:22:00,64.5,54.0,29.83,SSE,157,6.1,11.0,70,0.00,,,0.00,Rainwise IP-100,2013-12-19 23:22:00,
2013-12-19 17:27:00,64.2,54.0,29.83,SSE,157,6.3,9.0,70,0.00,,,0.00,Rainwise IP-100,2013-12-19 23:27:00,
2013-12-19 17:32:00,63.9,54.0,29.82,South,180,6.3,9.0,71,0.00,,,0.00,Rainwise IP-100,2013-12-19 23:32:00,
2013-12-19 17:37:00,63.5,54.0,29.82,South,180,5.1,8.0,71,0.00,,,0.00,Rainwise IP-100,2013-12-19 23:37:00,
2013-12-19 17:42:00,63.1,54.0,29.83,South,180,5.6,7.0,72,0.00,,,0.00,Rainwise IP-100,2013-12-19 23:42:00,
2013-12-19 17:47:00,62.7,54.0,29.82,South,180,5.4,7.0,73,0.00,,,0.00,Rainwise IP-100,2013-12-19 23:47:00,
2013-12-19 17:52:00,62.5,54.0,29.83,South,180,5.8,7.0,74,0.00,,,0.00,Rainwise IP-100,2013-12-19 23:52:00,
2013-12-19 17:57:00,62.2,53.0,29.83,SSE,157,3.0,6.0,74,0.00,,,0.00,Rainwise IP-100,2013-12-19 23:57:00,
2013-12-19 18:02:00,61.9,54.0,29.83,SSE,157,2.8,4.0,75,0.00,,,0.00,Rainwise IP-100,2013-12-20 00:02:00,
2013-12-19 18:07:00,61.4,54.0,29.84,South,180,3.3,4.0,76,0.00,,,0.00,Rainwise IP-100,2013-12-20 00:07:00,
2013-12-19 18:12:00,61.0,54.0,29.83,SSE,157,2.1,4.0,77,0.00,,,0.00,Rainwise IP-100,2013-12-20 00:12:00,
2013-12-19 18:17:00,60.5,53.0,29.83,SSW,202,3.0,4.0,78,0.00,,,0.00,Rainwise IP-100,2013-12-20 00:17:00,
2013-12-19 18:22:00,60.1,53.0,29.83,South,180,3.7,5.0,78,0.00,,,0.00,Rainwise IP-100,2013-12-20 00:22:00,
2013-12-19 18:27:00,60.0,53.0,29.84,South,180,4.4,6.0,79,0.00,,,0.00,Rainwise IP-100,2013-12-20 00:27:00,
2013-12-19 18:32:00,60.0,54.0,29.83,SSE,157,2.3,7.0,80,0.00,,,0.00,Rainwise IP-100,2013-12-20 00:32:00,
2013-12-19 18:37:00,59.9,54.0,29.84,SSE,157,4.7,7.0,80,0.00,,,0.00,Rainwise IP-100,2013-12-20 00:37:00,
2013-12-19 18:42:00,59.8,53.0,29.84,SSE,157,4.4,6.0,80,0.00,,,0.00,Rainwise IP-100,2013-12-20 00:42:00,
2013-12-19 18:47:00,59.7,53.0,29.84,South,180,2.8,7.0,81,0.00,,,0.00,Rainwise IP-100,2013-12-20 00:47:00,
2013-12-19 18:52:00,59.6,53.0,29.84,South,180,1.6,6.0,81,0.00,,,0.00,Rainwise IP-100,2013-12-20 00:52:00,
2013-12-19 18:57:00,59.4,53.0,29.84,South,180,0.0,4.0,81,0.00,,,0.00,Rainwise IP-100,2013-12-20 00:57:00,
2013-12-19 19:02:00,59.2,53.0,29.84,SSE,157,3.0,4.0,82,0.00,,,0.00,Rainwise IP-100,2013-12-20 01:02:00,
2013-12-19 19:07:00,59.0,53.0,29.84,South,180,3.5,5.0,82,0.00,,,0.00,Rainwise IP-100,2013-12-20 01:07:00,
2013-12-19 19:12:00,58.8,53.0,29.83,SSE,157,2.6,4.0,82,0.00,,,0.00,Rainwise IP-100,2013-12-20 01:12:00,
2013-12-19 19:17:00,58.8,54.0,29.83,SSE,157,3.5,5.0,83,0.00,,,0.00,Rainwise IP-100,2013-12-20 01:17:00,
2013-12-19 19:22:00,58.7,54.0,29.84,SSE,157,3.3,5.0,83,0.00,,,0.00,Rainwise IP-100,2013-12-20 01:22:00,
2013-12-19 19:27:00,58.5,54.0,29.84,SSE,157,2.6,4.0,83,0.00,,,0.00,Rainwise IP-100,2013-12-20 01:27:00,
2013-12-19 19:32:00,58.2,53.0,29.83,SSE,157,1.2,3.0,83,0.00,,,0.00,Rainwise IP-100,2013-12-20 01:32:00,
2013-12-19 19:37:00,58.0,53.0,29.83,SSE,157,3.5,4.0,84,0.00,,,0.00,Rainwise IP-100,2013-12-20 01:37:00,
2013-12-19 19:42:00,57.8,53.0,29.84,SSW,202,3.5,5.0,84,0.00,,,0.00,Rainwise IP-100,2013-12-20 01:42:00,
2013-12-19 19:47:00,57.6,53.0,29.84,SSW,202,3.7,5.0,85,0.00,,,0.00,Rainwise IP-100,2013-12-20 01:47:00,
2013-12-19 19:52:00,57.5,53.0,29.84,SSE,157,2.1,5.0,85,0.00,,,0.00,Rainwise IP-100,2013-12-20 01:52:00,
2013-12-19 19:57:00,57.7,53.0,29.84,South,180,4.0,6.0,86,0.00,,,0.00,Rainwise IP-100,2013-12-20 01:57:00,
2013-12-19 20:02:00,57.8,53.0,29.84,SSE,157,3.0,5.0,85,0.00,,,0.00,Rainwise IP-100,2013-12-20 02:02:00,
2013-12-19 20:07:00,57.8,53.0,29.84,SSE,157,2.6,6.0,85,0.00,,,0.00,Rainwise IP-100,2013-12-20 02:07:00,
2013-12-19 20:12:00,57.7,53.0,29.83,SSE,157,1.4,4.0,85,0.00,,,0.00,Rainwise IP-100,2013-12-20 02:12:00,
2013-12-19 20:17:00,57.5,53.0,29.84,SSE,157,2.1,4.0,86,0.00,,,0.00,Rainwise IP-100,2013-12-20 02:17:00,
2013-12-19 20:22:00,57.3,53.0,29.83,South,180,2.1,3.0,86,0.00,,,0.00,Rainwise IP-100,2013-12-20 02:22:00,
2013-12-19 20:27:00,57.1,53.0,29.84,South,180,2.8,4.0,86,0.00,,,0.00,Rainwise IP-100,2013-12-20 02:27:00,
2013-12-19 20:32:00,57.0,53.0,29.84,SSE,157,1.6,3.0,87,0.00,,,0.00,Rainwise IP-100,2013-12-20 02:32:00,
2013-12-19 20:37:00,56.7,53.0,29.83,SSE,157,1.6,3.0,87,0.00,,,0.00,Rainwise IP-100,2013-12-20 02:37:00,
2013-12-19 20:42:00,56.4,53.0,29.84,SSE,157,1.4,2.0,87,0.00,,,0.00,Rainwise IP-100,2013-12-20 02:42:00,
2013-12-19 20:47:00,56.2,53.0,29.84,SSE,157,2.1,3.0,88,0.00,,,0.00,Rainwise IP-100,2013-12-20 02:47:00,
2013-12-19 20:52:00,56.0,53.0,29.83,SSE,157,0.0,3.0,88,0.00,,,0.00,Rainwise IP-100,2013-12-20 02:52:00,
2013-12-19 20:57:00,55.6,53.0,29.83,SSE,157,0.0,1.0,89,0.00,,,0.00,Rainwise IP-100,2013-12-20 02:57:00,
2013-12-19 21:02:00,55.4,52.0,29.83,SSE,157,0.0,3.0,89,0.00,,,0.00,Rainwise IP-100,2013-12-20 03:02:00,
2013-12-19 21:07:00,55.4,53.0,29.82,SSE,157,1.2,1.2,90,0.00,,,0.00,Rainwise IP-100,2013-12-20 03:07:00,
2013-12-19 21:12:00,55.3,53.0,29.83,SSE,157,0.0,1.0,90,0.00,,,0.00,Rainwise IP-100,2013-12-20 03:12:00,
2013-12-19 21:17:00,55.1,53.0,29.82,SSE,157,0.0,0.0,91,0.00,,,0.00,Rainwise IP-100,2013-12-20 03:17:00,
2013-12-19 21:22:00,54.9,53.0,29.83,SSE,157,1.4,2.0,91,0.00,,,0.00,Rainwise IP-100,2013-12-20 03:22:00,
2013-12-19 21:27:00,54.8,52.0,29.82,SSE,157,1.4,1.4,91,0.00,,,0.00,Rainwise IP-100,2013-12-20 03:27:00,
2013-12-19 21:32:00,54.8,53.0,29.82,SE,135,0.0,3.0,92,0.00,,,0.00,Rainwise IP-100,2013-12-20 03:32:00,
2013-12-19 21:37:00,55.0,53.0,29.82,SE,135,0.0,2.0,92,0.00,,,0.00,Rainwise IP-100,2013-12-20 03:37:00,
2013-12-19 21:42:00,55.1,53.0,29.82,SE,135,0.0,1.0,92,0.00,,,0.00,Rainwise IP-100,2013-12-20 03:42:00,
2013-12-19 21:47:00,55.0,53.0,29.83,SE,135,0.0,0.0,92,0.00,,,0.00,Rainwise IP-100,2013-12-20 03:47:00,
2013-12-19 21:52:00,54.8,53.0,29.82,SE,135,0.0,1.0,93,0.00,,,0.00,Rainwise IP-100,2013-12-20 03:52:00,
2013-12-19 21:57:00,54.7,53.0,29.82,ESE,112,0.0,2.0,93,0.00,,,0.00,Rainwise IP-100,2013-12-20 03:57:00,
2013-12-19 22:02:00,54.7,53.0,29.82,ESE,112,0.0,1.0,93,0.00,,,0.00,Rainwise IP-100,2013-12-20 04:02:00,
2013-12-19 22:07:00,54.6,53.0,29.83,ESE,112,0.0,2.0,94,0.00,,,0.00,Rainwise IP-100,2013-12-20 04:07:00,
2013-12-19 22:12:00,54.7,53.0,29.83,ESE,112,1.2,2.0,94,0.00,,,0.00,Rainwise IP-100,2013-12-20 04:12:00,
2013-12-19 22:17:00,54.9,53.0,29.83,ESE,112,1.4,3.0,94,0.00,,,0.00,Rainwise IP-100,2013-12-20 04:17:00,
2013-12-19 22:22:00,55.0,53.0,29.83,ESE,112,1.4,3.0,94,0.00,,,0.00,Rainwise IP-100,2013-12-20 04:22:00,
2013-12-19 22:27:00,55.1,53.0,29.83,ESE,112,3.3,3.3,94,0.00,,,0.00,Rainwise IP-100,2013-12-20 04:27:00,
2013-12-19 22:32:00,55.5,54.0,29.83,East,90,2.3,4.0,94,0.00,,,0.00,Rainwise IP-100,2013-12-20 04:32:00,
2013-12-19 22:37:00,55.7,54.0,29.83,ESE,112,3.7,5.0,93,0.00,,,0.00,Rainwise IP-100,2013-12-20 04:37:00,
2013-12-19 22:42:00,55.8,54.0,29.83,ESE,112,0.0,5.0,93,0.00,,,0.00,Rainwise IP-100,2013-12-20 04:42:00,
2013-12-19 22:47:00,55.7,54.0,29.82,ESE,112,1.2,2.0,93,0.00,,,0.00,Rainwise IP-100,2013-12-20 04:47:00,
2013-12-19 22:52:00,55.7,54.0,29.82,ESE,112,2.8,4.0,93,0.00,,,0.00,Rainwise IP-100,2013-12-20 04:52:00,
2013-12-19 22:57:00,55.9,54.0,29.82,ESE,112,2.6,4.0,93,0.00,,,0.00,Rainwise IP-100,2013-12-20 04:57:00,
2013-12-19 23:01:00,55.9,54.0,29.82,ESE,112,2.3,3.0,93,0.00,,,0.00,Rainwise IP-100,2013-12-20 05:01:00,
2013-12-19 23:02:00,55.9,54.0,29.82,ESE,112,2.6,3.0,93,0.00,,,0.00,Rainwise IP-100,2013-12-20 05:02:00,
2013-12-19 23:03:00,55.9,54.0,29.82,ESE,112,2.3,4.0,93,0.00,,,0.00,Rainwise IP-100,2013-12-20 05:03:00,
2013-12-19 23:08:00,55.9,54.0,29.82,ESE,112,2.6,4.0,93,0.00,,,0.00,Rainwise IP-100,2013-12-20 05:08:00,
2013-12-19 23:13:00,56.1,54.0,29.82,ESE,112,1.4,5.0,93,0.00,,,0.00,Rainwise IP-100,2013-12-20 05:13:00,
2013-12-19 23:18:00,56.1,54.0,29.82,ESE,112,2.6,4.0,93,0.00,,,0.00,Rainwise IP-100,2013-12-20 05:18:00,
2013-12-19 23:23:00,56.2,54.0,29.82,ESE,112,2.3,5.0,93,0.00,,,0.00,Rainwise IP-100,2013-12-20 05:23:00,
2013-12-19 23:28:00,56.3,54.0,29.82,ESE,112,5.4,6.0,93,0.00,,,0.00,Rainwise IP-100,2013-12-20 05:28:00,
2013-12-19 23:33:00,56.3,54.0,29.82,ESE,112,2.3,5.0,93,0.00,,,0.00,Rainwise IP-100,2013-12-20 05:33:00,
2013-12-19 23:38:00,56.5,54.0,29.82,ESE,112,4.4,5.0,94,0.00,,,0.00,Rainwise IP-100,2013-12-20 05:38:00,
2013-12-19 23:43:00,56.7,54.0,29.82,SE,135,3.5,6.0,94,0.00,,,0.00,Rainwise IP-100,2013-12-20 05:43:00,
2013-12-19 23:48:00,56.8,54.0,29.82,SE,135,3.5,6.0,94,0.00,,,0.00,Rainwise IP-100,2013-12-20 05:48:00,
2013-12-19 23:53:00,57.0,55.0,29.81,ESE,112,4.0,6.0,94,0.00,,,0.00,Rainwise IP-100,2013-12-20 05:53:00,
2013-12-19 23:58:00,57.0,55.0,29.81,East,90,4.2,7.0,94,0.00,,,0.00,Rainwise IP-100,2013-12-20 05:58:00,